Home   Weather   Islamabad   Past weeks

Flag for Pakistan Past Weather in Islamabad, Pakistan — Yesterday and Last 2 Weeks

Now
81 °F

Partly sunny.


Feels Like: 80 °F
Forecast: 57 / 90 °F
Wind: 16 mph from Northwest

Location: Islamabad Airport

Current Time: Mar 25, 2017 at 12:52:41 pm

Latest Report: Mar 25, 2017 at 12:00 pm


Visibility: 4 mi

Pressure: 29.95 "Hg (28.12 "Hg at 554m altitude)

Humidity: 30%

Dew Point: 46 °F

Location of IslamabadLocation

Past Weather in Islamabad — Graph

°F

Islamabad Temperature Yesterday

Maximum temperature yesterday: 88 °F (at 1:00 pm)
Minimum temperature yesterday: 59 °F (at 6:30 am)
Average temperature yesterday: 71 °F

High & Low Weather Summary for the Past Weeks

 TemperatureHumidityPressure
High88 °F (Mar 24, 1:00 pm)87% (Mar 12, 7:00 am)30.39 "Hg (Mar 12, 7:00 am)
Low43 °F (Mar 12, 7:00 am)20% (Mar 20, 4:00 pm)29.77 "Hg (Mar 10, 2:00 pm)
Average64 °F52%29.97 "Hg
* Reported Mar 10 11:00 am — Mar 25 11:30 am, Islamabad, Weather by CustomWeather, © 2017

Note: Actual official high and low records may vary slightly from our data, if they occured in-between our weather recording intervals... More about our weather records

Advertising

Islamabad Weather History for the Previous 24 Hours

Scroll right to see more
 ConditionsComfort  
Time TempWeatherWind HumidityBarometerVisibility
11:30 am
Sat, Mar 25
77 °FPartly sunny.18 mph36%29.95 "Hg4 mi
11:00 am77 °FPartly sunny.18 mph36%29.95 "Hg2 mi
10:00 am77 °FScattered clouds.5 mph39%29.98 "Hg2 mi
9:30 am75 °FScattered clouds.5 mph47%29.95 "Hg2 mi
9:00 am75 °FScattered clouds.5 mph47%29.95 "Hg2 mi
8:30 am70 °FScattered clouds.No wind57%29.95 "Hg3 mi
8:00 am70 °FScattered clouds.No wind57%29.95 "Hg3 mi
7:30 am64 °FScattered clouds.No wind64%29.92 "Hg4 mi
7:00 am64 °FScattered clouds.No wind64%29.92 "Hg4 mi
6:30 am63 °FScattered clouds.No wind73%29.89 "Hg4 mi
6:00 am63 °FPassing clouds.No wind73%29.89 "Hg4 mi
5:00 am63 °FPassing clouds.No wind73%29.89 "Hg4 mi
4:30 am64 °FPassing clouds.No wind68%29.89 "Hg4 mi
4:00 am64 °FPassing clouds.No wind68%29.89 "Hg4 mi
3:00 am66 °FPassing clouds.No wind64%29.92 "Hg4 mi
2:30 am68 °FPassing clouds.No wind60%29.92 "Hg4 mi
2:00 am68 °FPassing clouds.No wind60%29.92 "Hg4 mi
1:30 am68 °FPassing clouds.No wind60%29.92 "Hg5 mi
1:00 am68 °FPassing clouds.No wind60%29.92 "Hg5 mi
12:30 am68 °FPassing clouds.No wind56%29.95 "Hg5 mi
12:00 am68 °FPassing clouds.No wind56%29.95 "Hg5 mi
11:00 pm
Fri, Mar 24
70 °FPassing clouds.5 mph57%29.95 "Hg5 mi
10:00 pm70 °FPassing clouds.5 mph53%29.98 "Hg5 mi
9:30 pm73 °FPassing clouds.5 mph44%29.95 "Hg5 mi
9:00 pm73 °FPassing clouds.5 mph44%29.95 "Hg5 mi
4:00 pm86 °FPartly sunny.21 mph29%29.89 "HgN/A
3:00 pm88 °FPartly sunny.12 mph29%29.92 "HgN/A
2:30 pm88 °FScattered clouds.9 mph29%29.92 "Hg4 mi
2:00 pm88 °FScattered clouds.9 mph29%29.92 "Hg4 mi
1:30 pm88 °FPartly sunny.7 mph29%29.95 "Hg4 mi
1:00 pm88 °FPartly sunny.7 mph29%29.95 "Hg4 mi
12:30 pm84 °FPartly sunny.7 mph35%29.95 "Hg4 mi
Weather by CustomWeather, © 2017

See weather overviewHow to use our weather pages